Weather in Drabiv

Ukraine / Cherkassi District     49°57′20″N   32°07′55″E
temp.,
°C
wind,
m/s
gust,
m/s
humid.,
%
clouds,
%
prec.,
mm/h
press.,
hPa
HPBL,
m
18 may, wed
wed1800:00+6nnw366624 0.0 1013102
03:00+5nnw347297 0.0 101387
06:00+4nnw511815 0.0 1014335
09:00+8nnw787676 0.0 1015802
12:00+9nnw7870100 0.0 10161102
15:00+9nnw6981100 0.3 1017812
18:00+11n7117877 1.1 10161052
21:00+9nnw6148668 1.7 1019476
19 may, thu
thu1900:00+7nnw6148910 0.0 1021396
03:00+5nnw512935 0.0 1022272
06:00+5nnw410932 0.0 1023228
09:00+12nnw58693 0.0 1023542
12:00+16nnw78525 0.0 10231687
15:00+17nw79455 0.0 10211769
18:00+17nw4854100 0.0 10201155
21:00+12nnw3969100 0.0 1022168
20 may, fri
fri2000:00+8nw46635 0.0 102289
03:00+8wnw377134 0.0 102195
06:00+8wnw357886 0.0 1022106
09:00+15wnw4666100 0.0 1022455
12:00+19wnw565364 0.0 10211197
15:00+16wnw4765100 0.0 1019334
18:00+17w036598 0.0 1018246
21:00+14s347486 0.0 101658
21 may, sat
sat2100:00+14sw4117997 0.0 1012238
03:00+14wsw3883100 0.1 1010213
06:00+14w51294100 0.6 1008500
09:00+16wnw71177100 0.6 1008975
12:00+19nw7105777 0.0 10081423
15:00+20wnw685399 0.0 10071681
18:00+17n3673100 0.0 1007293
21:00+13ene2395100 1.9 100794
22 may, sun
sun2200:00+13se2397100 0.9 1006147
03:00+13nne1197100 1.8 100459
06:00+12nw2598100 0.4 1003372
09:00+12nw489488 0.7 1003562
12:00+14nw5681100 1.6 1003772
15:00+15nnw457691 3.2 10031103
18:00+10ene6692100 0.9 1005384
21:00+8ne5994100 0.9 1007504